TimeCDT,TemperatureF,Dew PointF,Humidity,Sea Level PressureIn,VisibilityMPH,Wind Direction,Wind SpeedMPH,Gust SpeedMPH,PrecipitationIn,Events,Conditions,WindDirDegrees,DateUTC
12:53 AM,75.0,70.0,84,30.05,10.0,West,8.1,-,N/A,,Mostly Cloudy,280,2012-10-15 05:53:00
1:53 AM,73.0,68.0,84,30.04,10.0,NNE,4.6,-,N/A,,Scattered Clouds,20,2012-10-15 06:53:00
2:53 AM,70.0,68.0,93,30.04,10.0,North,3.5,-,N/A,,Scattered Clouds,10,2012-10-15 07:53:00
3:53 AM,70.0,64.0,81,30.04,10.0,North,8.1,-,N/A,,Scattered Clouds,350,2012-10-15 08:53:00
4:53 AM,68.0,61.0,78,30.04,10.0,North,3.5,-,N/A,,Scattered Clouds,10,2012-10-15 09:53:00
5:53 AM,66.9,60.1,79,30.04,10.0,North,8.1,-,N/A,,Partly Cloudy,360,2012-10-15 10:53:00
6:53 AM,66.9,59.0,76,30.06,10.0,North,8.1,-,N/A,,Mostly Cloudy,10,2012-10-15 11:53:00
7:53 AM,66.9,57.0,70,30.07,10.0,NE,11.5,-,N/A,,Mostly Cloudy,40,2012-10-15 12:53:00
8:53 AM,71.1,55.0,57,30.08,10.0,NE,11.5,-,N/A,,Mostly Cloudy,50,2012-10-15 13:53:00
9:53 AM,73.0,55.9,55,30.09,10.0,NE,10.4,-,N/A,,Mostly Cloudy,40,2012-10-15 14:53:00
10:53 AM,75.0,55.9,51,30.09,10.0,NE,10.4,-,N/A,,Overcast,50,2012-10-15 15:53:00
11:53 AM,78.1,54.0,43,30.08,10.0,ENE,11.5,-,N/A,,Overcast,60,2012-10-15 16:53:00
12:53 PM,79.0,53.1,40,30.06,10.0,ENE,6.9,16.1,N/A,,Overcast,60,2012-10-15 17:53:00
1:53 PM,79.0,51.1,38,30.03,10.0,NNE,8.1,-,N/A,,Overcast,30,2012-10-15 18:53:00
2:53 PM,79.0,48.9,35,30.01,10.0,NNE,6.9,-,N/A,,Overcast,20,2012-10-15 19:53:00
3:53 PM,78.1,48.0,35,29.99,10.0,East,5.8,-,N/A,,Overcast,80,2012-10-15 20:53:00
4:53 PM,78.1,46.0,32,29.98,10.0,NE,3.5,-,N/A,,Overcast,50,2012-10-15 21:53:00
5:53 PM,77.0,48.9,37,29.98,10.0,Calm,Calm,-,N/A,,Overcast,0,2012-10-15 22:53:00
6:53 PM,73.0,53.1,49,29.99,10.0,Calm,Calm,-,N/A,,Overcast,0,2012-10-15 23:53:00
7:53 PM,69.1,54.0,58,30.00,10.0,Calm,Calm,-,N/A,,Mostly Cloudy,0,2012-10-16 00:53:00
8:53 PM,66.0,54.0,65,30.01,10.0,Calm,Calm,-,N/A,,Mostly Cloudy,0,2012-10-16 01:53:00
9:53 PM,66.0,53.1,63,30.02,10.0,Calm,Calm,-,N/A,,Mostly Cloudy,0,2012-10-16 02:53:00
10:53 PM,64.9,54.0,68,30.02,10.0,Calm,Calm,-,N/A,,Mostly Cloudy,0,2012-10-16 03:53:00
11:53 PM,64.0,55.0,73,30.02,10.0,Calm,Calm,-,N/A,,Mostly Cloudy,0,2012-10-16 04:53:00